(153153) = 2000 SP288 = 2007 BA30

Discovered at Socorro on 2000-09-27 by LINEAR.

Orbit

Orbit type: Main Belt

Note: WebGL enabled browser required.

epoch2024-03-31.0
epoch JD2460400.5
perihelion date2022-02-20.44821
perihelion JD2459630.94821
argument of perihelion (°)316.86919
ascending node (°)321.33778
inclination (°)13.96840
eccentricity0.0903685
perihelion distance (AU)2.4611402
Tisserand w.r.t. Jupiter3.3
ΔV w.r.t. Earth (km/sec)10.8
semimajor axis (AU)2.7056453
mean anomaly (°)170.42582
mean daily motion (°/day)0.22146120
aphelion distance (AU)2.950
period (years)4.45
P-vector [x]0.15537934
P-vector [y]-0.82795823
P-vector [z]-0.53883433
Q-vector [x]0.97627676
Q-vector [y]0.04543584
Q-vector [z]0.21170562
absolute magnitude15.77
phase slope0.15
uncertainty0
referenceMPEC 2024-E190
observations used595
oppositions15
arc length (days)11869
first opposition used1991
last opposition used2024
residual rms (arc-secs)0.72
perturbers coarse indicatorM-v
perturbers precise indicator003Ek
first observation date used1991-09-15.0
last observation date used2024-03-14.0
computer nameMPCLINUX
JD of orbit computation2456966.887655
perihelion JD uncertainty (days)2.7741E-04
argument of perihelion uncertainty (°)7.0460E-05
ascending node uncertainty (°)3.0095E-05
inclination uncertainty (°)1.0661E-05
eccentricity uncertainty 7.1898E-08
perihelion distance uncertainty (AU)2.0528E-07
Minimum Orbit Intersection Distances (in AU)
for orbit epoch: 2460400.5, reference: E2024-EJ0
Mercury2.00211
Venus1.7415
Earth1.46262
Mars1.05605
Jupiter2.30742
Saturn6.16031
Uranus15.6183
Neptune27.0883

Observations

611 total observations over interval: 1991 09 15.11560 – 2024 03 14.170801
These data are available for download (format description).

Date (UT) J2000 RA J2000 Dec Magn Location Ref
1991 09 15.11560 22 39 17.06 +01 34 04.3   691 – Steward Observatory, Kitt Peak-Spacewatch MPS 198613
1991 09 15.13577 22 39 15.98 +01 34 03.0   691 – Steward Observatory, Kitt Peak-Spacewatch MPS 198613
1991 09 15.15613 22 39 14.83 +01 34 01.9 20.0 V 691 – Steward Observatory, Kitt Peak-Spacewatch MPS 198613
2000 09 23.26682 23 15 54.44 +09 13 24.4 18.8 R 699 – Lowell Observatory-LONEOS MPS 34335
2000 09 23.28232 23 15 53.53 +09 13 21.8   699 – Lowell Observatory-LONEOS MPS 34335
2000 09 23.29775 23 15 52.71 +09 13 19.5   699 – Lowell Observatory-LONEOS MPS 34335
2000 09 23.31319 23 15 51.84 +09 13 15.0   699 – Lowell Observatory-LONEOS MPS 34335
2000 09 27.21796 23 12 20.62 +09 03 32.7 19.8   704 – Lincoln Laboratory ETS, New Mexico MPS 20238
2000 09 27.23304 23 12 19.75 +09 03 30.0 19.9   704 – Lincoln Laboratory ETS, New Mexico MPS 20238
2000 09 27.24809 23 12 18.98 +09 03 27.9 19.7   704 – Lincoln Laboratory ETS, New Mexico MPS 20238
2000 10 03.24746 23 07 22.23 +08 46 42.3 19.4   704 – Lincoln Laboratory ETS, New Mexico MPS 20238
2000 10 03.26241 23 07 21.55 +08 46 40.2 20.2   704 – Lincoln Laboratory ETS, New Mexico MPS 20238
2000 10 03.27752 23 07 20.81 +08 46 36.9 19.1   704 – Lincoln Laboratory ETS, New Mexico MPS 20238
2000 10 03.29290 23 07 20.11 +08 46 34.6 19.6   704 – Lincoln Laboratory ETS, New Mexico MPS 20238
2000 10 03.30800 23 07 19.35 +08 46 32.4 19.4   704 – Lincoln Laboratory ETS, New Mexico MPS 20238
2004 07 13.62126 20 30 28.56 -28 45 35.7 18.9 R E12 – Siding Spring Survey MPS 198613
2004 07 13.63718 20 30 27.50 -28 45 33.4 18.4 R E12 – Siding Spring Survey MPS 198613
2004 07 13.65313 20 30 26.43 -28 45 32.1 17.9 R E12 – Siding Spring Survey MPS 198613
2004 07 13.66918 20 30 25.54 -28 45 30.7 18.6 R E12 – Siding Spring Survey MPS 198613
2004 08 07.56337 20 03 39.24 -27 27 54.2 18.6 R E12 – Siding Spring Survey MPS 198613
2004 08 07.57193 20 03 38.75 -27 27 51.1 18.7 R E12 – Siding Spring Survey MPS 198613
2004 08 07.58051 20 03 38.28 -27 27 49.0 19.4 R E12 – Siding Spring Survey MPS 198613
2004 08 07.58910 20 03 37.81 -27 27 46.9 18.7 R E12 – Siding Spring Survey MPS 198613
2004 08 11.17813 20 00 19.09 -27 10 40.8 19.8 C 704 – Lincoln Laboratory ETS, New Mexico MPS 291325
2004 08 11.18793 20 00 18.56 -27 10 38.8 19.5 C 704 – Lincoln Laboratory ETS, New Mexico MPS 291325
2004 08 11.19772 20 00 18.10 -27 10 36.2 19.8 C 704 – Lincoln Laboratory ETS, New Mexico MPS 291325
2004 08 11.20784 20 00 17.47 -27 10 33.4 19.7 C 704 – Lincoln Laboratory ETS, New Mexico MPS 291325
2004 08 11.21766 20 00 16.83 -27 10 29.8 19.7 C 704 – Lincoln Laboratory ETS, New Mexico MPS 291325
2005 10 25.30295 03 03 01.90 +38 49 43.8 20.9 V 703 – Catalina Sky Survey MPS 198613
2005 10 25.31397 03 03 01.22 +38 49 43.6 19.9 V 703 – Catalina Sky Survey MPS 198613
2005 10 25.32498 03 03 00.57 +38 49 42.8 19.6 V 703 – Catalina Sky Survey MPS 198613
2005 10 25.33588 03 02 59.78 +38 49 43.7 20.1 V 703 – Catalina Sky Survey MPS 198613
2005 12 02.33359 02 25 05.95 +36 04 22.7 19.5 V 703 – Catalina Sky Survey MPS 198614
2005 12 02.34194 02 25 05.34 +36 04 16.9 19.7 V 703 – Catalina Sky Survey MPS 198614
2005 12 02.35031 02 25 04.87 +36 04 14.2 19.9 V 703 – Catalina Sky Survey MPS 198614
2005 12 02.35854 02 25 04.69 +36 04 09.2 20.4 V 703 – Catalina Sky Survey MPS 198614
2005 12 22.15695 02 16 58.07 +33 41 18.1 20.0 R 644 – Palomar Mountain/NEAT MPS 198614
2005 12 22.17849 02 16 57.88 +33 41 09.6 20.2 R 644 – Palomar Mountain/NEAT MPS 198614
2005 12 22.20173 02 16 57.72 +33 41 00.1 20.6 R 644 – Palomar Mountain/NEAT MPS 198614
2006 12 23.43272 09 46 37.92 +18 19 41.3 20.4 V G96 – Mt. Lemmon Survey MPS 198614
2006 12 23.44362 09 46 37.81 +18 19 40.6 20.6 V G96 – Mt. Lemmon Survey MPS 198614
2006 12 23.45222 09 46 37.59 +18 19 40.4 20.8 V G96 – Mt. Lemmon Survey MPS 198614
2006 12 23.46076 09 46 37.45 +18 19 39.6 20.5 V G96 – Mt. Lemmon Survey MPS 198614
2007 01 17.34123 09 32 41.43 +18 15 38.6 20.2 V 691 – Steward Observatory, Kitt Peak-Spacewatch MPS 198229
2007 01 17.35854 09 32 40.53 +18 15 38.9 20.0 V 691 – Steward Observatory, Kitt Peak-Spacewatch MPS 198229
2007 01 17.37585 09 32 39.61 +18 15 39.6 20.4 V 691 – Steward Observatory, Kitt Peak-Spacewatch MPS 198229
2007 01 24.27179 09 26 21.77 +18 19 22.6 19.5   704 – Lincoln Laboratory ETS, New Mexico MPS 198229
2007 01 24.28415 09 26 21.04 +18 19 21.4 20.0   704 – Lincoln Laboratory ETS, New Mexico MPS 198229
2007 01 24.29641 09 26 20.37 +18 19 21.7 19.8   704 – Lincoln Laboratory ETS, New Mexico MPS 198229
2007 01 24.36965 09 26 15.97 +18 19 24.6 19.7 V 703 – Catalina Sky Survey MPS 198229
2007 01 24.37623 09 26 15.57 +18 19 24.5 19.8 V 703 – Catalina Sky Survey MPS 198229
2007 01 24.38277 09 26 15.25 +18 19 23.2 19.5 V 703 – Catalina Sky Survey MPS 198229
2007 01 24.38933 09 26 14.92 +18 19 25.2 20.9 V 703 – Catalina Sky Survey MPS 198229
2007 01 26.31561 09 24 21.64 +18 20 29.4 20.1 V 691 – Steward Observatory, Kitt Peak-Spacewatch MPS 198229
2007 01 26.33342 09 24 20.56 +18 20 29.8 20.0 V 691 – Steward Observatory, Kitt Peak-Spacewatch MPS 198229
2007 01 26.35148 09 24 19.45 +18 20 30.5 20.1 V 691 – Steward Observatory, Kitt Peak-Spacewatch MPS 198229
2007 02 06.40523 09 12 53.56 +18 25 07.5 19.4 V G96 – Mt. Lemmon Survey MPS 198788
2007 02 06.41202 09 12 53.13 +18 25 07.4 19.7 V G96 – Mt. Lemmon Survey MPS 198788
2007 02 06.41869 09 12 52.70 +18 25 07.7 19.5 V G96 – Mt. Lemmon Survey MPS 198788
2007 02 06.42553 09 12 52.27 +18 25 07.7 19.6 V G96 – Mt. Lemmon Survey MPS 198788
2007 02 08.28256 09 10 55.16 +18 25 28.0 19.5 V G96 – Mt. Lemmon Survey MPS 198788
2007 02 08.29108 09 10 54.62 +18 25 27.7 19.3 V G96 – Mt. Lemmon Survey MPS 198788
2007 02 08.29943 09 10 54.08 +18 25 28.2 19.4 V G96 – Mt. Lemmon Survey MPS 198788
2007 02 08.30775 09 10 53.58 +18 25 28.2 19.3 V G96 – Mt. Lemmon Survey MPS 198788
2007 03 09.24524 08 45 37.98 +18 01 20.2 20.4 V G96 – Mt. Lemmon Survey MPS 202282
2007 03 09.25171 08 45 37.72 +18 01 19.3 20.5 V G96 – Mt. Lemmon Survey MPS 202282
2007 03 09.25817 08 45 37.51 +18 01 18.6 20.3 V G96 – Mt. Lemmon Survey MPS 202282
2007 03 09.26463 08 45 37.26 +18 01 18.2 20.4 V G96 – Mt. Lemmon Survey MPS 202282
2009 08 18.36624 00 26 58.34 +15 22 49.1 19.4 V 703 – Catalina Sky Survey MPS 292466
2009 08 18.37285 00 26 58.20 +15 22 52.5 20.1 V 703 – Catalina Sky Survey MPS 292466
2009 08 18.37953 00 26 57.98 +15 22 53.7 19.9 V 703 – Catalina Sky Survey MPS 292466
2009 08 18.38602 00 26 57.76 +15 22 56.2 19.6 V 703 – Catalina Sky Survey MPS 292466
2009 08 26.34956 00 22 46.74 +15 59 19.6 19.7   704 – Lincoln Laboratory ETS, New Mexico MPS 293099
2009 08 26.36216 00 22 46.28 +15 59 22.9 20.3   704 – Lincoln Laboratory ETS, New Mexico MPS 293099
2009 08 26.37478 00 22 45.76 +15 59 26.0 20.2   704 – Lincoln Laboratory ETS, New Mexico MPS 293099
2009 09 26.22384 23 55 50.59 +16 21 20.6 19.5   704 – Lincoln Laboratory ETS, New Mexico MPS 297672
2009 09 26.23614 23 55 49.77 +16 21 18.5 19.6   704 – Lincoln Laboratory ETS, New Mexico MPS 297672
2009 09 26.24845 23 55 49.01 +16 21 17.9 19.6   704 – Lincoln Laboratory ETS, New Mexico MPS 297672
2009 09 26.27310 23 55 47.60 +16 21 13.9 19.8   704 – Lincoln Laboratory ETS, New Mexico MPS 297672
2009 09 28.26375 23 53 51.14 +16 16 22.3 19.6 V 703 – Catalina Sky Survey MPS 298187
2009 09 28.26927 23 53 50.78 +16 16 20.8 19.7 V 703 – Catalina Sky Survey MPS 298187
2009 09 28.27478 23 53 50.60 +16 16 20.4 19.5 V 703 – Catalina Sky Survey MPS 298187
2009 09 28.28022 23 53 50.28 +16 16 18.4 19.8 V 703 – Catalina Sky Survey MPS 298187
2009 10 15.21090 23 39 09.97 +15 16 07.8 19.7 V 703 – Catalina Sky Survey MPS 300384
2009 10 15.21675 23 39 09.72 +15 16 06.7 19.6 V 703 – Catalina Sky Survey MPS 300384
2009 10 15.22289 23 39 09.43 +15 16 04.4 19.7 V 703 – Catalina Sky Survey MPS 300384
2009 10 15.22892 23 39 09.10 +15 16 03.4 19.2 V 703 – Catalina Sky Survey MPS 300384
2009 10 15.78685 23 38 45.43 +15 13 41.6 18.5 V J75 – OAM Observatory, La Sagra MPS 299146
2009 10 15.79925 23 38 44.89 +15 13 38.7 19.8 V J75 – OAM Observatory, La Sagra MPS 299146
2009 10 15.81164 23 38 44.39 +15 13 36.2 19.7 V J75 – OAM Observatory, La Sagra MPS 299146
